DW2182 Weather Reports


time (UTC)temp
F
wind
direction
speed
knots
gust
knots
rain 1hr
in
rain 24hr
in
rain mn
in
humidity
%
barometer
mb
20260504185557 65 135 10.4 15.6 0.00 0.00 0.00 30 1001.4
20260504184517 66 135 8.7 15.6 0.00 0.00 0.00 31 1001.4
20260504183516 66 135 10.4 17.4 0.00 0.00 0.00 29 1001.3
20260504182516 67 135 10.4 18.2 0.00 0.00 0.00 32 1001.5
20260504181517 67 135 8.7 17.4 0.00 0.00 0.00 34 1001.3
20260504180516 66 135 9.6 16.5 0.00 0.00 0.00 35 1001.1
20260504175516 66 135 9.6 14.8 0.00 0.00 0.00 35 1000.9
20260504174516 66 135 7.8 14.8 0.00 0.00 0.00 36 1001.0
20260504173537 67 135 9.6 16.5 0.00 0.00 0.00 34 1000.8
20260504172517 67 135 8.7 14.8 0.00 0.00 0.00 37 1000.9
20260504171517 67 135 7.0 19.1 0.00 0.00 0.00 37 1000.7
20260504170537 67 135 6.1 16.5 0.00 0.00 0.00 36 1000.7
20260504150517 61 135 7.8 13.0 0.00 0.00 0.00 40 999.8
20260504140517 62 135 7.0 15.6 0.00 0.00 0.00 43 999.7
20260504130516 61 135 7.0 10.4 0.00 0.00 0.00 49 999.4
20260504110516 56 113 5.2 7.8 0.00 0.00 0.00 54 997.3
20260504100517 53 113 5.2 9.6 0.00 0.00 0.00 57 998.1
20260504081516 53 90 3.5 8.7 0.00 0.00 0.00 57 999.7
20260504080536 53 90 4.3 7.8 0.00 0.00 0.00 57 999.8
20260504050516 55 0.0 0.0 0.00 0.00 0.00 50 1002.5
20260504045516 55 0.0 0.0 0.00 0.00 0.00 48 1002.7
20260504044516 54 0.0 0.0 0.00 0.00 0.00 50 1002.8
20260504043516 54 0.0 0.0 0.00 0.00 0.00 53 1002.8
20260504042516 54 0.0 0.0 0.00 0.00 0.00 56 1003.1
20260504041516 55 0.0 0.0 0.00 0.00 0.00 56 1003.2
20260504040516 55 0.0 0.0 0.00 0.00 0.00 57 1003.4
20260504035516 55 0.0 0.0 0.00 0.00 0.00 55 1003.3
20260504034516 56 0.0 0.0 0.00 0.00 0.00 54 1003.6
20260504033516 56 0.0 0.0 0.00 0.00 0.00 55 1003.7
20260504032516 57 0.0 0.0 0.00 0.00 0.00 54 1003.9
20260504031516 58 0.0 0.0 0.00 0.00 0.00 53 1004.1
20260504030536 58 0.0 0.0 0.00 0.00 0.00 51 1004.1
20260504025536 59 0.0 0.0 0.00 0.00 0.00 49 1004.2
20260504024516 60 0.0 0.0 0.00 0.00 0.00 47 1004.2
20260504023516 61 0.0 0.0 0.00 0.00 0.00 46 1004.2
20260504022516 62 0.0 0.0 0.00 0.00 0.00 44 1004.2
20260504021556 63 0.0 0.0 0.00 0.00 0.00 43 1004.4
20260504020516 64 0.0 0.9 0.00 0.00 0.00 41 1004.3
20260504015516 65 0.0 0.0 0.00 0.00 0.00 39 1004.3
20260504014516 66 0.0 0.0 0.00 0.00 0.00 37 1004.3
20260504013516 67 0.0 0.0 0.00 0.00 0.00 35 1004.3
20260504012516 68 0.0 0.0 0.00 0.00 0.00 33 1004.3
20260504011517 69 0.0 0.0 0.00 0.00 0.00 32 1004.2
20260504010516 70 0.0 0.0 0.00 0.00 0.00 30 1004.2
20260504005515 70 0.0 0.9 0.00 0.00 0.00 27 1004.3
20260504004536 70 135 0.9 2.6 0.00 0.00 0.00 27 1004.3
20260504003536 71 135 1.7 2.6 0.00 0.00 0.00 26 1004.5
20260504002515 71 158 1.7 6.1 0.00 0.00 0.00 26 1004.7
20260504001516 71 135 3.5 4.3 0.00 0.00 0.00 26 1004.8
20260504000516 71 135 4.3 7.8 0.00 0.00 0.00 26 1005.0
20260503235516 71 135 3.5 7.8 0.00 0.00 0.00 25 1005.0
20260503234616 71 135 3.5 9.6 0.00 0.00 0.00 25 1005.2
20260503233516 72 135 4.3 11.3 0.00 0.00 0.00 25 1005.2
20260503232516 72 135 4.3 7.8 0.00 0.00 0.00 26 1005.3
20260503231516 72 135 4.3 8.7 0.00 0.00 0.00 26 1005.4
20260503230516 72 135 4.3 9.6 0.00 0.00 0.00 26 1005.4
20260503225536 72 135 5.2 11.3 0.00 0.00 0.00 26 1005.3
20260503224516 72 135 5.2 10.4 0.00 0.00 0.00 26 1005.5
20260503223515 73 135 6.1 10.4 0.00 0.00 0.00 26 1005.7
20260503222515 73 135 5.2 9.6 0.00 0.00 0.00 26 1005.8
20260503221535 74 135 5.2 8.7 0.00 0.00 0.00 26 1005.7
20260503220536 74 135 5.2 12.2 0.00 0.00 0.00 26 1005.8
20260503215516 74 135 7.0 11.3 0.00 0.00 0.00 27 1006.0
20260503214516 74 135 6.1 10.4 0.00 0.00 0.00 27 1005.9
20260503213517 74 135 5.2 10.4 0.00 0.00 0.00 28 1006.1
20260503212558 75 135 4.3 7.8 0.00 0.00 0.00 26 1006.2
20260503211518 74 113 6.1 14.8 0.00 0.00 0.00 28 1006.2
20260503210517 75 158 5.2 11.3 0.00 0.00 0.00 27 1006.5
20260503205518 74 135 6.1 12.2 0.00 0.00 0.00 28 1006.5
20260503204518 74 135 4.3 8.7 0.00 0.00 0.00 27 1006.6
20260503203518 74 135 7.0 13.9 0.00 0.00 0.00 29 1007.0
20260503202518 74 135 7.8 14.8 0.00 0.00 0.00 27 1007.1
20260503201518 75 135 5.2 10.4 0.00 0.00 0.00 32 1007.2
20260503200538 74 135 5.2 11.3 0.00 0.00 0.00 29 1007.2
20260503195518 74 135 6.1 13.0 0.00 0.00 0.00 29 1007.4
20260503194518 74 135 6.1 10.4 0.00 0.00 0.00 28 1007.5
20260503193518 74 135 7.0 13.0 0.00 0.00 0.00 30 1007.7
20260503192518 73 135 7.0 11.3 0.00 0.00 0.00 30 1007.7
20260503191517 73 135 7.0 17.4 0.00 0.00 0.00 30 1007.8
20260503190516 72 135 7.8 13.0 0.00 0.00 0.00 31 1007.8